• In Austria
  • List of Countries
  • For 7 days
  • Water Temperature
  • Satellite Maps
  • Weather Map
  • News
  • Weather Widgets
  • user-avatar
    Login

    Hourly Weather Keszyca

    Today, 21 September, Friday

    Time Temperature Precipitation Wind Pressure Humidity
    00:00 +21°C° 0 mm 3 mps 751 mmHg 65%
    01:00 +21°C° 0 mm 3 mps 751 mmHg 66%
    02:00 +21°C° 0 mm 3 mps 751 mmHg 67%
    03:00 +20°C° 0 mm 3 mps 751 mmHg 68%
    04:00 +20°C° 0 mm 3 mps 750 mmHg 70%
    05:00 +20°C° 0 mm 3 mps 750 mmHg 69%
    06:00 +21°C° 0 mm 4 mps 750 mmHg 67%
    07:00 +21°C° 0 mm 4 mps 750 mmHg 66%
    08:00 +23°C° 0 mm 4 mps 749 mmHg 59%
    09:00 +26°C° 0 mm 5 mps 749 mmHg 51%
    10:00 +28°C° 0 mm 6 mps 749 mmHg 44%
    11:00 +29°C° 0 mm 6 mps 748 mmHg 40%
    12:00 +30°C° 0 mm 6 mps 747 mmHg 36%
    13:00 +32°C° 0 mm 7 mps 746 mmHg 32%
    14:00 +32°C° 0 mm 7 mps 746 mmHg 34%
    15:00 +30°C° 0 mm 6 mps 746 mmHg 35%
    16:00 +30°C° 0 mm 6 mps 746 mmHg 37%
    17:00 +26°C° 0.6 mm 6 mps 746 mmHg 50%
    18:00 +21°C° 0.6 mm 6 mps 747 mmHg 63%
    19:00 +16°C° 0.6 mm 6 mps 747 mmHg 76%
    20:00 +15°C° 0.5 mm 6 mps 748 mmHg 75%
    21:00 +14°C° 0.5 mm 5 mps 749 mmHg 74%
    22:00 +14°C° 0.5 mm 4 mps 750 mmHg 73%
    23:00 +13°C° 0 mm 4 mps 751 mmHg 70%

    Tomorrow, 22 September, Saturday

    Time Temperature Precipitation Wind Pressure Humidity
    00:00 +13°C° 0 mm 4 mps 751 mmHg 68%
    01:00 +13°C° 0 mm 4 mps 751 mmHg 65%
    02:00 +12°C° 0 mm 4 mps 752 mmHg 65%
    03:00 +12°C° 0 mm 4 mps 752 mmHg 65%
    04:00 +11°C° 0 mm 4 mps 752 mmHg 64%
    05:00 +10°C° 0 mm 5 mps 752 mmHg 64%
    06:00 +12°C° 0 mm 5 mps 752 mmHg 63%
    07:00 +11°C° 0 mm 6 mps 753 mmHg 63%
    08:00 +13°C° 0 mm 6 mps 753 mmHg 59%
    09:00 +14°C° 0 mm 6 mps 753 mmHg 56%
    10:00 +15°C° 0 mm 6 mps 754 mmHg 53%
    11:00 +16°C° 0.1 mm 6 mps 754 mmHg 51%
    12:00 +16°C° 0.1 mm 7 mps 754 mmHg 49%
    13:00 +17°C° 0.1 mm 7 mps 754 mmHg 47%
    14:00 +16°C° 0.2 mm 7 mps 753 mmHg 48%
    15:00 +16°C° 0.2 mm 6 mps 753 mmHg 50%
    16:00 +16°C° 0.2 mm 6 mps 753 mmHg 51%
    17:00 +15°C° 0.1 mm 5 mps 753 mmHg 55%
    18:00 +14°C° 0.1 mm 4 mps 754 mmHg 59%
    19:00 +13°C° 0.1 mm 3 mps 754 mmHg 63%
    20:00 +12°C° 0 mm 4 mps 754 mmHg 63%
    21:00 +12°C° 0 mm 4 mps 755 mmHg 64%
    22:00 +11°C° 0 mm 4 mps 755 mmHg 65%
    23:00 +11°C° 0 mm 4 mps 755 mmHg 66%

    Day after tomorrow, 23 September, Sunday

    Time Temperature Precipitation Wind Pressure Humidity
    00:00 +10°C° 0 mm 4 mps 755 mmHg 67%
    01:00 +10°C° 0 mm 4 mps 755 mmHg 68%
    02:00 +10°C° 0 mm 4 mps 755 mmHg 69%
    03:00 +8°C° 0 mm 4 mps 755 mmHg 70%
    04:00 +8°C° 0 mm 4 mps 755 mmHg 72%
    05:00 +8°C° 0 mm 4 mps 755 mmHg 72%
    06:00 +8°C° 0 mm 4 mps 755 mmHg 72%
    07:00 +8°C° 0 mm 4 mps 755 mmHg 72%
    08:00 +11°C° 0 mm 4 mps 755 mmHg 65%
    09:00 +12°C° 0 mm 4 mps 755 mmHg 59%
    10:00 +14°C° 0 mm 5 mps 755 mmHg 52%
    11:00 +15°C° 0 mm 5 mps 755 mmHg 49%
    12:00 +17°C° 0 mm 4 mps 754 mmHg 46%
    13:00 +18°C° 0 mm 4 mps 754 mmHg 43%
    14:00 +16°C° 0.2 mm 3 mps 753 mmHg 51%
    15:00 +15°C° 0.2 mm 2 mps 753 mmHg 60%
    16:00 +14°C° 0.2 mm 2 mps 752 mmHg 68%
    17:00 +14°C° 0.6 mm 2 mps 751 mmHg 74%
    18:00 +13°C° 0.6 mm 2 mps 750 mmHg 80%
    19:00 +12°C° 0.6 mm 3 mps 749 mmHg 85%
    20:00 +12°C° 1.2 mm 3 mps 748 mmHg 86%
    21:00 +12°C° 1.2 mm 4 mps 746 mmHg 88%
    22:00 +12°C° 1.2 mm 5 mps 745 mmHg 89%
    23:00 +13°C° 4.3 mm 4 mps 743 mmHg 91%

    24 September, Monday

    Time Temperature Precipitation Wind Pressure Humidity
    00:00 +14°C° 4.3 mm 4 mps 741 mmHg 93%
    01:00 +15°C° 4.3 mm 4 mps 739 mmHg 95%
    02:00 +15°C° 4 mm 4 mps 738 mmHg 95%
    03:00 +16°C° 4 mm 5 mps 736 mmHg 94%
    04:00 +16°C° 4 mm 5 mps 734 mmHg 94%
    05:00 +15°C° 0.4 mm 6 mps 734 mmHg 90%
    06:00 +15°C° 0.4 mm 7 mps 734 mmHg 86%
    07:00 +13°C° 0.4 mm 8 mps 734 mmHg 83%
    08:00 +12°C° 0.7 mm 10 mps 736 mmHg 82%
    09:00 +9°C° 0.7 mm 12 mps 739 mmHg 81%
    10:00 +8°C° 0.7 mm 13 mps 741 mmHg 80%
    11:00 +9°C° 0.5 mm 12 mps 744 mmHg 75%
    12:00 +9°C° 0.5 mm 11 mps 747 mmHg 71%
    13:00 +9°C° 0.5 mm 10 mps 750 mmHg 67%
    14:00 +10°C° 0.2 mm 9 mps 751 mmHg 66%
    15:00 +10°C° 0.2 mm 8 mps 752 mmHg 64%
    16:00 +11°C° 0.2 mm 8 mps 754 mmHg 63%
    17:00 +10°C° 0 mm 7 mps 755 mmHg 63%
    18:00 +9°C° 0 mm 6 mps 756 mmHg 64%
    19:00 +8°C° 0 mm 5 mps 757 mmHg 64%
    20:00 +8°C° 0 mm 5 mps 758 mmHg 62%
    21:00 +8°C° 0 mm 5 mps 759 mmHg 60%
    22:00 +8°C° 0 mm 6 mps 760 mmHg 58%
    23:00 +7°C° 0 mm 5 mps 761 mmHg 59%

    25 September, Tuesday

    Time Temperature Precipitation Wind Pressure Humidity
    00:00 +7°C° 0 mm 5 mps 762 mmHg 59%
    01:00 +6°C° 0 mm 5 mps 762 mmHg 60%
    02:00 +6°C° 0 mm 5 mps 763 mmHg 62%
    03:00 +6°C° 0 mm 5 mps 764 mmHg 64%
    04:00 +6°C° 0 mm 5 mps 764 mmHg 66%
    05:00 +6°C° 0 mm 5 mps 764 mmHg 67%
    06:00 +6°C° 0 mm 5 mps 765 mmHg 68%
    07:00 +6°C° 0 mm 5 mps 765 mmHg 68%
    08:00 +8°C° 0 mm 5 mps 765 mmHg 63%
    09:00 +9°C° 0 mm 6 mps 765 mmHg 57%
    10:00 +11°C° 0 mm 6 mps 765 mmHg 52%
    11:00 +11°C° 0 mm 7 mps 765 mmHg 51%
    12:00 +12°C° 0 mm 7 mps 765 mmHg 50%
    13:00 +14°C° 0 mm 7 mps 764 mmHg 48%
    14:00 +12°C° 0 mm 7 mps 764 mmHg 52%
    15:00 +12°C° 0 mm 7 mps 763 mmHg 56%
    16:00 +11°C° 0 mm 7 mps 763 mmHg 59%
    17:00 +11°C° 0.1 mm 7 mps 762 mmHg 62%
    18:00 +11°C° 0.1 mm 7 mps 762 mmHg 66%
    19:00 +11°C° 0.1 mm 8 mps 762 mmHg 69%
    20:00 +10°C° 0.7 mm 8 mps 761 mmHg 71%
    21:00 +10°C° 0.7 mm 8 mps 761 mmHg 74%
    22:00 +10°C° 0.7 mm 8 mps 761 mmHg 77%
    23:00 +10°C° 0.9 mm 6 mps 761 mmHg 80%

    26 September, Wednesday

    Time Temperature Precipitation Wind Pressure Humidity
    00:00 +9°C° 0.9 mm 5 mps 762 mmHg 83%
    01:00 +10°C° 0.9 mm 4 mps 762 mmHg 86%
    02:00 +10°C° 0.1 mm 4 mps 762 mmHg 87%
    03:00 +9°C° 0.1 mm 3 mps 762 mmHg 88%
    04:00 +9°C° 0.1 mm 3 mps 763 mmHg 89%
    05:00 +9°C° 0 mm 3 mps 763 mmHg 89%
    06:00 +9°C° 0 mm 3 mps 764 mmHg 89%
    07:00 +9°C° 0 mm 2 mps 764 mmHg 90%
    08:00 +11°C° 0 mm 3 mps 764 mmHg 83%
    09:00 +12°C° 0 mm 3 mps 764 mmHg 77%
    10:00 +13°C° 0 mm 3 mps 765 mmHg 71%
    11:00 +14°C° 0.1 mm 3 mps 765 mmHg 70%
    12:00 +14°C° 0.1 mm 4 mps 765 mmHg 69%
    13:00 +15°C° 0.1 mm 4 mps 764 mmHg 68%
    14:00 +15°C° 0.1 mm 4 mps 764 mmHg 68%
    15:00 +14°C° 0.1 mm 4 mps 764 mmHg 69%
    16:00 +14°C° 0.1 mm 3 mps 764 mmHg 69%
    17:00 +13°C° 0 mm 3 mps 764 mmHg 73%
    18:00 +13°C° 0 mm 2 mps 764 mmHg 78%
    19:00 +12°C° 0 mm 2 mps 764 mmHg 82%
    20:00 +12°C° 0 mm 2 mps 764 mmHg 84%
    21:00 +10°C° 0 mm 2 mps 764 mmHg 86%
    22:00 +10°C° 0 mm 2 mps 764 mmHg 87%
    23:00 +9°C° 0 mm 2 mps 764 mmHg 88%
    Show more